IRIDIUM 33 DEB

Satellite information

Favourite Embed

Satellite Type and Status

DEBRISIN ORBIT

Key statistics

Satellite IRIDIUM 33 DEB at a glance.

Uptime

10156

Days in orbit

Revolutions

≈ 14.5

Per day

Orbit

LEO

Low Earth Orbit

Inclination

86.3

Latest

Satellite identification and parameters

Extended collection of information and parameters for IRIDIUM 33 DEB.

Object identification

Identified? True

Debris? True

Object name: IRIDIUM 33 DEB

International designator: 1997-051AAB

Object number (NORAD): 38474

Object ID (CCSDS): 38474

Country: UNITED STATES OF AMERICA (US)

Current information (Y/N): Y

RCS size: SMALL

Orbital parameters

Period: 99.33 minutes

Inclination: 86.3369 deg

SMA: 7104.702 km

Apoapsis: 743.541 km

Periapsis: 709.593 km

RAAN: 83.3306 deg

Eccentricy: 0.0023891

Argument of periapsis: 295.287 deg

Mean anomaly: 64.5858 deg

Mean motion: 14.49719416 rev/day

Mean motion (dot): 0.00001719 rev/day2

B* drag term: 0.00044009 1/REarth

Two-line elements (TLE)

Creation date: June 27, 2025, 5:57 p.m.

Reference frame: TEME

Reference center: EARTH

Epoch: June 27, 2025, 10:54 a.m. UTC

TLE line 0: 0 IRIDIUM 33 DEB

TLE line 1: 1 38474U 97051AAB 25178.45434400 .00001719 00000-0 44009-3 0 9993

TLE line 2: 2 38474 86.3369 83.3306 0023891 295.2870 64.5858 14.49719416628796

Live tracking on map

Real-time ground track for satellite IRIDIUM 33 DEB.

In-orbit conjunctions

A list of the most updated potential collisions computed for object IRIDIUM 33 DEB.

Target Orbit TCA Probability of collision Miss distance Type
CZ-6A DEB LEO 2025-01-22 12:20:19 0.0001813026 424.0 (m) DEBRIS
COSMOS 1331 LEO 2024-06-16 17:08:03 0.0007584958 98.0 (m) PAYLOAD

Associated space launch

Iridium provides global mobile telecommunications services using a constellation of 66 low earth orbit satellites in a 86.4° inclined orbit. Although 77 satellites were originally envisioned for the system and spawned the name based on the 77th element in the periodic table, the system has been scaled back. Motorola's Satellite Communications Group designed and manufactured the Iridium satellites with Lockheed Martin providing the LM-700A spacecraft buses.

IRIDIUM 33 DEB was lifted into orbit during the mission ‘Proton-K/17S40 | Iridium 27 to 33’, on board a Proton-K/17S40 space rocket.

The launch took place on Sept. 14, 1997, 1:36 a.m. from 81/23 (81L).

For more information about the launch, click the button.

Launch to space Proton-K/17S40 | Iridium 27 to 33
Proton-K/17S40 | Iridium 27 to 33

Agency: N/A

Status: Launch Successful

Launch date: Sept. 14, 1997, 1:36 a.m. UTC

Rocket: Proton-K/17S40

Launch pad: 81/23 (81L)

Location: Baikonur Cosmodrome, Republic of Kazakhstan

...

Latest news about this satellite

There are no fresh news available about this satellite. Check back as we update our databases every day.


Newsletter sign-up

Weekly statistics, charts and insights to help you stay on top of the space industry.